Simultaneous Nadir Overpasses (SNOs) Predictions

Prediction of SNOs between NOAA-15 and METOP-C Satellite Orbit:

Table of predicted SNOs for the next 14.0 days since TLE Epoch: 1/23/2024
Index Date (NOAA-15) Time (NOAA-15) Lat,Lon (NOAA-15) SZA (NOAA-15 ) Date (METOP-C) Time (METOP-C) Lat,Lon (METOP-C) SZA (METOP-C ) Distance(km) Time Diff (sec)
1 02/05/2024 23:17:19 81.06,-130.95 98.42 02/05/2024 23:16:11 81.06,-131.09 98.39 2.47 68
2 02/06/2024 00:07:54 -81.08, 36.11 81.61 02/06/2024 00:06:52 -81.06, 36.24 81.63 2.80 62
3 02/06/2024 00:58:19 81.06,-156.08 98.41 02/06/2024 00:57:32 81.07,-156.24 98.39 3.03 47
4 02/06/2024 01:48:54 -81.07, 10.97 81.62 02/06/2024 01:48:13 -81.07, 11.10 81.63 2.15 41
5 02/06/2024 02:39:20 81.07, 178.41 98.37 02/06/2024 02:38:54 81.07, 178.25 98.34 3.00 26



Historial Predications of SNOs between NOAA-15 and METOP-C
